Regional Weather Roundup
Issued by NWS

Home | Current Version | Previous Version | Graphics & Text | Print | Product List | Glossary On
Versions: 1 2 3 4 5 6 7 8 9 10 11 12 13 14 15 16 17 18 19 20 21 22 23 24 25 26 27 28 29 30 31 32 33 34 35 36 37 38 39 40 41 42 43 44 45 46 47 48 49 50
000
ASUS43 KBIS 282302
RWRND

NORTH DAKOTA REGIONAL WEATHER ROUNDUP
NATIONAL WEATHER SERVICE BISMARCK ND
600 PM CDT SUN AUG 28 2016

NOTE: "FAIR" INDICATES FEW OR NO CLOUDS BELOW 12,000 FEET WITH NO
SIGNIFICANT WEATHER AND/OR OBSTRUCTIONS TO VISIBILITY.


NDZ001>003-009>011-017-290000-
NORTHWEST NORTH DAKOTA

CITY           SKY/WX    TMP DP  RH WIND       PRES   REMARKS
WILLISTON      SUNNY     87  46  24 N13       29.96R
MINOT          SUNNY     93  54  26 S13       29.86S HX  91
MINOT AFB      SUNNY     89  57  34 N18       29.86R
$$

NDZ018>021-031>035-040>046-290000-
SOUTHWEST NORTH DAKOTA

CITY           SKY/WX    TMP DP  RH WIND       PRES   REMARKS
BISMARCK       SUNNY     89  63  41 SE7       29.90S HX  90
DICKINSON      SUNNY     91  35  13 NW14      29.92R
GARRISON         N/A     91  58  32 SE6       29.89S HX  90
HETTINGER ARPT SUNNY     94  40  15 NW10      29.95R HX  90
$$

NDZ004>008-012>016-024-026-027-054-290000-
NORTHEAST NORTH DAKOTA

CITY           SKY/WX    TMP DP  RH WIND       PRES   REMARKS
GRAND FORKS    MOSUNNY   83  69  62 SE14      29.92F
GRND FRKS AFB  SUNNY     82  70  66 SE13      29.92F
DEVILS LAKE    SUNNY     81  70  69 SE10      29.93S
$$

NDZ022-023-025-028>030-036>039-047>053-290000-
SOUTHEAST NORTH DAKOTA

CITY           SKY/WX    TMP DP  RH WIND       PRES   REMARKS
FARGO          SUNNY     88  71  57 S17       29.92R HX  94
JAMESTOWN      SUNNY     86  72  62 S7        29.91S HX  92
$$





USA.gov is the U.S. government's official web portal to all federal, state and local government web resources and services.